This is the latest recevied weather packets stored in our database for station/object DB0NLS-15. If no packets are shown the sender has not sent any weather packets the latest 10 day(s).
| Time | Temp. | Humidity | Pressure | Rain* | Wind** | Luminosity | Snow |
|---|---|---|---|---|---|---|---|
| 1777562161 | 16.67° C | 40% | 1017.7 hPa | 0 mm | - | - | - |
| 1777561558 | 17.22° C | 39% | 1017.8 hPa | 0 mm | - | - | - |
| 1777560956 | 16.67° C | 39% | 1018 hPa | 0 mm | - | - | - |
| 1777560353 | 16.11° C | 40% | 1018.1 hPa | 0 mm | - | - | - |
| 1777559751 | 16.67° C | 39% | 1018.2 hPa | 0 mm | - | - | - |
| 1777559148 | 17.22° C | 39% | 1018.2 hPa | 0 mm | - | - | - |
| 1777558545 | 16.67° C | 38% | 1018.5 hPa | 0 mm | - | - | - |
| 1777557943 | 16.11° C | 38% | 1018.6 hPa | 0 mm | - | - | - |
| 1777557340 | 16.67° C | 38% | 1018.5 hPa | 0 mm | - | - | - |
| 1777556738 | 16.67° C | 38% | 1018.5 hPa | 0 mm | - | - | - |
| 1777556135 | 16.11° C | 38% | 1018.7 hPa | 0 mm | - | - | - |
| 1777555532 | 15.56° C | 39% | 1018.8 hPa | 0 mm | - | - | - |
| 1777554930 | 15.56° C | 38% | 1018.8 hPa | 0 mm | - | - | - |
| 1777554327 | 15.56° C | 39% | 1018.9 hPa | 0 mm | - | - | - |
| 1777553724 | 15° C | 40% | 1019 hPa | 0 mm | - | - | - |
| 1777553122 | 15.56° C | 38% | 1019.1 hPa | 0 mm | - | - | - |
| 1777552519 | 16.11° C | 38% | 1019.3 hPa | 0 mm | - | - | - |
| 1777551916 | 15° C | 39% | 1019.4 hPa | 0 mm | - | - | - |
| 1777551374 | 14.44° C | 38% | 1019.4 hPa | 0 mm | - | - | - |
| 1777550771 | 15° C | 39% | 1019.6 hPa | 0 mm | - | - | - |
| 1777550169 | 13.89° C | 39% | 1019.5 hPa | 0 mm | - | - | - |
| 1777549566 | 14.44° C | 38% | 1019.6 hPa | 0 mm | - | - | - |
| 1777548963 | 14.44° C | 37% | 1019.7 hPa | 0 mm | - | - | - |
| 1777548361 | 14.44° C | 38% | 1019.8 hPa | 0 mm | - | - | - |
| 1777547758 | 13.89° C | 38% | 1019.8 hPa | 0 mm | - | - | - |
* Rain latest hour (hover to see other rain measurements)
** Current wind speed in m/s (hover to see current wind gust speed)